Regional Weather Roundup
Issued by NWS

Home | Current Version | Previous Version | Graphics & Text | Print | Product List | Glossary On
Versions: 1 2 3 4 5 6 7 8 9 10 11 12 13 14 15 16 17 18 19 20 21 22 23 24 25 26 27 28 29 30 31 32 33 34 35 36 37 38 39 40 41 42 43 44 45 46 47 48 49 50
211
ASUS44 KLIX 311105
RWRLA
LOUISIANA WEATHER ROUNDUP
NATIONAL WEATHER SERVICE NEW ORLEANS LA
600 AM CDT FRI OCT 31 2014

NOTE: "FAIR" INDICATES FEW OR NO CLOUDS BELOW 12,000 FEET WITH NO
      SIGNIFICANT WEATHER AND/OR OBSTRUCTIONS TO VISIBILITY.
      SKY/WX - SKY CONDITION AND SIGNIFICANT WEATHER.
      TMP - AIR TEMPERATURE.    DP   - DEWPOINT TEMPERATURE.
      RH  - RELATIVE HUMIDITY.  PRES - PRESSURE.
      HX  - HEAT INDEX.         WCI  - WIND CHILL INDEX.

*  THESE STATIONS ARE NOT NWS OR FAA STATIONS AND ARE NOT UNDER
   NWS QUALITY CONTROL.

LAZ040-048-061>063-065-066-069-311200-
SOUTHEAST LOUISIANA

CITY           SKY/WX    TMP DP  RH WIND       PRES   REMARKS
N.O. AUDUBON   NOT AVBL
N.O. INTL ARPT CLEAR     56  49  77 W5        30.03S
N.O. LAKEFRONT CLEAR     65  48  54 N8        30.03S
N.O. DOWNTOWN* FAIR      61  46  59 CALM      30.03S
SLIDELL        CLEAR     44  40  85 CALM      30.02S
BATON ROUGE    CLEAR     48  45  89 CALM      30.04S
BOOTHVILLE     CLEAR     65  51  60 N7        30.02S
BELLE CHASSE   CLEAR     49  45  86 CALM      30.03S
BOGALUSA*        N/A     42  39  89 CALM      30.04S
NEW ROADS*     FAIR      47  45  94 CALM      30.05S
GONZALES*      FAIR      48  48 100 CALM      30.04S
HAMMOND*       NOT AVBL
HOUMA*         CLEAR     52  47  83 CALM      30.04S
PORT FOURCHON* SUNNY     64  55  72 VRB5      30.06S

$$

LAZ041-044-053-054-311200-
SOUTHWEST LOUISIANA

CITY           SKY/WX    TMP DP  RH WIND       PRES   REMARKS
LAKE CHARLES   CLEAR     51  49  92 W3        30.07S
LAFAYETTE      CLEAR     53  46  77 CALM      30.06S
PATTERSON      CLEAR     50  48  93 CALM      30.07S
SALT POINT       N/A     56  51  84 CALM      30.05R
NEW IBERIA     PTCLDY    49  46  90 CALM      30.06S
CHENAULT AIRPK CLEAR     52  48  87 CALM      30.08R

$$

LAZ027-028-311200-
CENTRAL LOUISIANA

CITY           SKY/WX    TMP DP  RH WIND       PRES   REMARKS
FORT POLK      NOT AVBL
ALEXANDRIA INT CLEAR     47  45  93 CALM      30.05S
ALEXANDRIA     CLEAR     47  45  93 W5        30.06R

$$

LAZ001-002-311200-
NORTHWEST LOUISIANA

CITY           SKY/WX    TMP DP  RH WIND       PRES   REMARKS
SHREVEPORT     CLEAR     51  47  86 NW7       30.10R
BARKSDALE AFB  CLEAR     49  45  85 NW6       30.10R
DTN SHREVEPORT CLEAR     54  45  71 NW7       30.10R

$$

LAZ014-016-311200-
NORTHEAST LOUISIANA

CITY           SKY/WX    TMP DP  RH WIND       PRES   REMARKS
MONROE         CLEAR     51  45  79 NW7       30.07R
TALLULAH       CLEAR     43  41  93 CALM      30.03S

$$




USA.gov is the U.S. government's official web portal to all federal, state and local government web resources and services.